[[{"header":{"parameterUnit":"m.s-1","parameterCategory":1,"la1":30.2991,"la2":30.254,"lo1":-89.0895,"lo2":-89.0444,"dy":0.0017,"dx":0.0017,"nx":28,"ny":28,"refTime":"2024-03-10T09:00:00:Z","depth":0,"parameterNumber":2,"parameterNumberName":"U-component_of_WINDS"},"data":[0,0,0,0,0,0,0,0,0,0,0,0,0,0,0,0,0,0,0,0,0,0,0,0,0,0,0,0,0,0,0,0,0,0,0,0,0,0,0,0,0,0,0,0,0,0,0,0,0,0,0,0,0,0,0,0,0,0,-0.1422,-0.1423,0,-0.145,-0.145,-0.145,-0.145,-0.1449,-0.1449,-0.1449,-0.1479,-0.148,-0.1481,0,0,0,0,0,0,0,0,0,0,0,0,0,-0.137,-0.1371,-0.1422,-0.1423,-0.1423,-0.145,-0.145,-0.1451,-0.145,-0.1449,-0.1449,-0.1449,-0.1479,-0.148,-0.1481,0,0,0,0,0,0,0,0,0,0,0,0,0,-0.1395,-0.1372,-0.1422,-0.1426,-0.1426,-0.145,-0.145,-0.1451,-0.145,-0.1449,-0.1449,-0.1448,-0.1478,-0.148,-0.1482,-0.1504,0,0,-0.1487,-0.1488,0,0,0,0,0,0,0,0,-0.1393,-0.1397,-0.1425,-0.1426,-0.1426,-0.1446,-0.1443,-0.1469,-0.145,-0.1441,-0.1449,-0.1448,-0.1469,-0.1471,-0.1478,-0.1505,-0.1506,-0.1487,-0.1488,-0.1489,-0.1489,0,0,0,0,0,0,0,-0.1392,-0.1396,-0.1433,-0.1425,-0.1426,-0.1426,-0.1429,-0.1448,-0.1458,-0.1442,-0.1442,-0.1445,-0.1469,-0.1476,-0.1478,-0.1507,-0.1487,-0.1489,-0.149,-0.149,-0.1554,-0.1555,0,0,0,0,0,0,-0.1389,-0.1394,-0.1432,-0.1434,-0.1408,-0.1428,-0.1431,-0.144,-0.1458,-0.146,-0.1445,-0.1445,-0.1473,-0.1476,-0.1479,-0.1507,-0.1489,-0.149,-0.1491,-0.1553,-0.1554,-0.1555,0,0,0,0,0,0,-0.1388,-0.1392,-0.1431,-0.1414,-0.1419,-0.1429,-0.144,-0.1441,-0.1448,-0.146,-0.1462,-0.1451,-0.1473,-0.1477,-0.1498,-0.1508,-0.1491,-0.1493,-0.1553,-0.1554,-0.1555,-0.1562,0,0,0,0,0,0,-0.1386,-0.1392,-0.14,-0.1414,-0.142,-0.1449,-0.144,-0.1442,-0.1451,-0.145,-0.1466,-0.1468,-0.1473,-0.1495,-0.1499,-0.151,-0.1494,-0.1552,-0.1553,-0.1554,-0.1561,-0.1563,-0.1564,0,0,0,0,0,-0.1385,-0.1402,-0.1401,-0.1405,-0.143,-0.1449,-0.1453,-0.1457,-0.1452,-0.146,-0.1468,-0.1467,-0.1506,-0.1497,-0.1502,-0.1513,-0.1551,-0.1553,-0.1554,-0.156,-0.1562,-0.1564,0,0,0,0,0,0,-0.139,-0.1404,-0.1403,-0.1425,-0.1436,-0.1449,-0.146,-0.146,-0.1473,-0.1472,-0.1478,-0.1482,-0.1502,-0.151,-0.15,-0.1536,-0.1528,-0.153,-0.153,-0.1533,-0.1535,-0.1533,-0.1496,0,0,0,0,0,-0.1393,-0.1407,-0.1418,-0.1437,-0.1442,-0.145,-0.1458,-0.1461,-0.1473,-0.1478,-0.1487,-0.1499,-0.1514,-0.1524,-0.1538,-0.1561,-0.1565,-0.1571,-0.1573,-0.1575,-0.1577,-0.159,-0.1594,-0.156,-0.156,-0.156,0,0,-0.1401,-0.141,-0.1419,-0.1438,-0.1447,-0.1461,-0.1454,-0.147,-0.1481,-0.148,-0.1501,-0.1507,-0.1521,-0.1543,-0.1554,-0.155,-0.1587,-0.1577,-0.1578,-0.1579,-0.1592,-0.1595,-0.1598,-0.1561,-0.1561,-0.156,0,0,-0.1423,-0.1431,-0.1447,-0.1456,-0.1469,-0.1474,-0.1477,-0.1491,-0.1495,-0.1515,-0.1515,-0.1528,-0.1553,-0.1563,-0.1572,-0.1596,-0.1596,-0.16,-0.1611,-0.1624,-0.1627,-0.1629,-0.1638,-0.1642,-0.1602,-0.1602,-0.1602,0,-0.1431,-0.1452,-0.1456,-0.1471,-0.148,-0.1479,-0.1496,-0.1504,-0.1521,-0.1527,-0.1523,-0.1554,-0.1563,-0.1588,-0.1594,-0.16,-0.1605,-0.1599,-0.1626,-0.1628,-0.1631,-0.164,-0.1643,-0.1603,-0.1603,-0.1603,-0.1603,0,-0.1462,-0.1477,-0.1488,-0.1504,-0.1514,-0.153,-0.1536,-0.1546,-0.1547,-0.1552,-0.1573,-0.1584,-0.16,-0.1606,-0.1607,-0.163,-0.1628,-0.1624,-0.1617,-0.1634,-0.1643,-0.1646,-0.1604,-0.1603,-0.1603,-0.1603,0,0,-0.149,-0.1506,-0.151,-0.1518,-0.1531,-0.1543,-0.1559,-0.1574,-0.1582,-0.1594,-0.1608,-0.1628,-0.1625,-0.1635,-0.1637,-0.1648,-0.1667,-0.1643,-0.1644,-0.1648,-0.1694,-0.1697,-0.1701,-0.1667,-0.1667,-0.1668,-0.1693,0,-0.1514,-0.1541,-0.1544,-0.1569,-0.1583,-0.1582,-0.1596,-0.1606,-0.1611,-0.1624,-0.163,-0.1645,-0.1639,-0.1645,-0.1655,-0.1663,-0.1677,-0.1661,-0.1681,-0.1681,-0.1679,-0.1706,-0.171,-0.1733,-0.1696,-0.1697,-0.1697,0,-0.1546,-0.1557,-0.1584,-0.1595,-0.1601,-0.1613,-0.1627,-0.1639,-0.1651,-0.1654,-0.1664,-0.1665,-0.1681,-0.1672,-0.1696,-0.1685,-0.1693,-0.1697,-0.1698,-0.1702,-0.1692,-0.1711,-0.174,-0.1744,-0.1703,-0.1702,-0.1702,0,-0.1564,-0.1586,-0.1605,-0.1611,-0.1624,-0.1633,-0.1639,-0.165,-0.1659,-0.1671,-0.1677,-0.1691,-0.1699,-0.171,-0.1715,-0.1708,-0.1739,-0.173,-0.1743,-0.1743,-0.1751,-0.175,-0.1783,-0.1754,-0.1754,-0.1753,-0.1753,0,-0.1591,-0.1608,-0.1613,-0.1625,-0.1643,-0.1646,-0.1664,-0.167,-0.1679,-0.1692,-0.1692,-0.1704,-0.1709,-0.1723,-0.1726,-0.1746,-0.1749,-0.1753,-0.1754,-0.1753,-0.1753,-0.176,-0.1759,-0.1754,-0.1754,-0.1754,-0.1754,0,-0.1616,-0.162,-0.164,-0.1651,-0.1654,-0.1667,-0.1677,-0.1688,-0.1692,-0.1709,-0.1713,-0.172,-0.1736,-0.1741,-0.176,-0.1763,-0.1786,-0.1785,-0.1782,-0.1782,-0.1795,-0.1794,-0.1835,-0.184,-0.1806,-0.1806,-0.1807,0,-0.1633,-0.1646,-0.1658,-0.1666,-0.1672,-0.1686,-0.1694,-0.1697,-0.1707,-0.172,-0.173,-0.1745,-0.1757,-0.1782,-0.179,-0.1804,-0.1804,-0.1817,-0.1807,-0.1806,-0.1806,-0.1806,-0.1807,-0.182,-0.182,-0.1821,-0.1821,0,-0.1665,-0.1666,-0.1678,-0.1691,-0.1702,-0.1712,-0.1722,-0.1729,-0.1734,-0.1744,-0.1759,-0.1769,-0.1788,-0.1803,-0.1818,-0.1824,-0.1824,-0.1824,-0.1828,-0.1828,-0.1827,-0.1829,-0.1788,-0.1823,-0.1823,-0.1823,-0.1823,-0.1823,-0.1687,-0.1698,-0.1708,-0.1722,-0.1729,-0.1739,-0.175,-0.1755,-0.1768,-0.1783,-0.1784,-0.1801,-0.1812,-0.1831,-0.1838,-0.1852,-0.1848,-0.1854,-0.1855,-0.1857,-0.1859,-0.1823,-0.1854,-0.1854,-0.1854,-0.1854,-0.1854,0,-0.172,-0.1725,-0.1738,-0.1752,-0.1763,-0.1759,-0.177,-0.178,-0.1794,-0.1804,-0.1816,-0.1833,-0.1848,-0.1856,-0.1871,-0.188,-0.188,-0.1884,-0.1884,-0.1886,-0.186,-0.1856,-0.1883,-0.1883,-0.1883,-0.1883,-0.1883,-0.1883,-0.1738,-0.1756,-0.1759,-0.1781,-0.1787,-0.1803,-0.1809,-0.1818,-0.1826,-0.1845,-0.1857,-0.1862,-0.1871,-0.1886,-0.1899,-0.1901,-0.1907,-0.1912,-0.1913,-0.189,-0.1887,-0.1884,-0.188,-0.1913,-0.1913,-0.1938,-0.1938,-0.1938]},{"header":{"parameterUnit":"m.s-1","parameterCategory":1,"la1":30.2991,"la2":30.254,"lo1":-89.0895,"lo2":-89.0444,"dy":0.0017,"dx":0.0017,"nx":28,"ny":28,"refTime":"2024-03-10T09:00:00:Z","depth":0,"parameterNumber":3,"parameterNumberName":"V-component_of_WINDS"},"data":[0,0,0,0,0,0,0,0,0,0,0,0,0,0,0,0,0,0,0,0,0,0,0,0,0,0,0,0,0,0,0,0,0,0,0,0,0,0,0,0,0,0,0,0,0,0,0,0,0,0,0,0,0,0,0,0,0,0,-4.9853,-4.9854,0,-4.9948,-4.9949,-4.995,-4.9932,-4.993,-4.9929,-4.9927,-5.0021,-5.0025,-5.0029,0,0,0,0,0,0,0,0,0,0,0,0,0,-4.9653,-4.9657,-4.9853,-4.9854,-4.9855,-4.9948,-4.9949,-4.9951,-4.9932,-4.993,-4.9928,-4.9926,-5.002,-5.0025,-5.0029,0,0,0,0,0,0,0,0,0,0,0,0,0,-4.9743,-4.9658,-4.9853,-4.9858,-4.9859,-4.9948,-4.9949,-4.9951,-4.9933,-4.993,-4.9928,-4.9925,-5.0018,-5.0024,-5.003,-5.0119,0,0,-5.0049,-5.0052,0,0,0,0,0,0,0,0,-4.9738,-4.9751,-4.9856,-4.9857,-4.9859,-4.9926,-4.9913,-5.0007,-4.9933,-4.9905,-4.9927,-4.9924,-4.9991,-4.9999,-5.0023,-5.0124,-5.0128,-5.0049,-5.0053,-5.0056,-5.0058,0,0,0,0,0,0,0,-4.9732,-4.9746,-4.989,-4.9857,-4.9859,-4.9854,-4.9864,-4.9931,-4.9961,-4.9907,-4.9906,-4.9918,-4.9992,-5.0017,-5.0025,-5.0129,-5.0049,-5.0055,-5.0059,-5.0061,-5.0309,-5.0312,0,0,0,0,0,0,-4.9725,-4.9741,-4.9887,-4.9893,-4.9791,-4.986,-4.9871,-4.9907,-4.996,-4.9966,-4.992,-4.9916,-5.0008,-5.0018,-5.0028,-5.0137,-5.0056,-5.0062,-5.0065,-5.0307,-5.031,-5.0313,0,0,0,0,0,0,-4.972,-4.9738,-4.9884,-4.9817,-4.9835,-4.9866,-4.9906,-4.991,-4.9935,-4.997,-4.9975,-4.994,-5.0006,-5.0019,-5.0097,-5.014,-5.0064,-5.007,-5.0303,-5.0308,-5.0312,-5.0356,0,0,0,0,0,0,-4.9715,-4.9736,-4.9771,-4.9818,-4.9839,-4.9952,-4.9909,-4.9914,-4.9946,-4.9943,-4.999,-4.9996,-5.0005,-5.0088,-5.0103,-5.0147,-5.0075,-5.0299,-5.0305,-5.031,-5.0351,-5.0361,-5.037,0,0,0,0,0,-4.9708,-4.9778,-4.9773,-4.9791,-4.9883,-4.9955,-4.9967,-4.9977,-4.995,-4.9985,-5.0007,-4.9994,-5.0133,-5.0096,-5.0113,-5.016,-5.0297,-5.0304,-5.031,-5.0346,-5.0359,-5.037,0,0,0,0,0,0,-4.9734,-4.9785,-4.9779,-4.9867,-4.9907,-4.9952,-4.9996,-4.999,-5.0037,-5.0032,-5.0041,-5.0052,-5.0132,-5.0153,-5.0112,-5.025,-5.0211,-5.0221,-5.0233,-5.0245,-5.0255,-5.0248,-5.008,0,0,0,0,0,-4.975,-4.9805,-4.9846,-4.992,-4.994,-4.9965,-4.9996,-5.0001,-5.0042,-5.0058,-5.0086,-5.0126,-5.0178,-5.0213,-5.0263,-5.0353,-5.0364,-5.0394,-5.0403,-5.0411,-5.042,-5.0471,-5.0485,-5.0335,-5.0335,-5.0335,0,0,-4.9784,-4.9819,-4.9852,-4.9926,-4.9958,-5.0014,-4.9979,-5.0039,-5.0081,-5.0067,-5.0143,-5.0165,-5.021,-5.0295,-5.0334,-5.0315,-5.0464,-5.042,-5.0426,-5.043,-5.0479,-5.0494,-5.0506,-5.0339,-5.0338,-5.0338,0,0,-4.9875,-4.9906,-4.9972,-5.0005,-5.0054,-5.007,-5.0085,-5.0131,-5.0146,-5.0223,-5.0214,-5.0263,-5.0353,-5.0386,-5.0414,-5.0519,-5.051,-5.0535,-5.0586,-5.0636,-5.0648,-5.0658,-5.0697,-5.0711,-5.0544,-5.0544,-5.0544,0,-4.9911,-4.9996,-5.0007,-5.0069,-5.0102,-5.0094,-5.0161,-5.0191,-5.0253,-5.0276,-5.0254,-5.0369,-5.0398,-5.0492,-5.0518,-5.054,-5.0559,-5.053,-5.0646,-5.0656,-5.0666,-5.0703,-5.0718,-5.0547,-5.0547,-5.0546,-5.0546,0,-5.0038,-5.0098,-5.0145,-5.0208,-5.0246,-5.031,-5.033,-5.0367,-5.0369,-5.0387,-5.0466,-5.0501,-5.0559,-5.0581,-5.0582,-5.0675,-5.0662,-5.0643,-5.0605,-5.0683,-5.0719,-5.0733,-5.0551,-5.055,-5.0549,-5.0548,0,0,-5.0148,-5.0217,-5.0234,-5.0263,-5.0317,-5.0362,-5.0426,-5.0485,-5.0517,-5.056,-5.0614,-5.0691,-5.0675,-5.0707,-5.0712,-5.0755,-5.0838,-5.0731,-5.0732,-5.0751,-5.0944,-5.096,-5.0976,-5.0832,-5.0834,-5.0836,-5.0941,0,-5.0245,-5.036,-5.0372,-5.0474,-5.053,-5.0523,-5.0579,-5.0617,-5.0636,-5.0685,-5.0705,-5.0761,-5.0734,-5.0754,-5.0796,-5.0819,-5.0877,-5.0811,-5.0882,-5.0885,-5.0873,-5.0994,-5.101,-5.1107,-5.0955,-5.0957,-5.0959,0,-5.0374,-5.0423,-5.0532,-5.0579,-5.0603,-5.0653,-5.0708,-5.0755,-5.0799,-5.081,-5.0847,-5.0846,-5.0912,-5.0871,-5.0962,-5.0917,-5.0946,-5.0962,-5.0966,-5.0974,-5.0927,-5.1006,-5.1138,-5.1153,-5.098,-5.0978,-5.0977,0,-5.0445,-5.0538,-5.0616,-5.064,-5.0697,-5.0733,-5.0758,-5.0799,-5.0834,-5.0882,-5.0905,-5.0959,-5.0989,-5.103,-5.1044,-5.1013,-5.1135,-5.1095,-5.1146,-5.1146,-5.1173,-5.1172,-5.1313,-5.119,-5.119,-5.119,-5.1189,0,-5.0553,-5.062,-5.0649,-5.0697,-5.0772,-5.0784,-5.0858,-5.0881,-5.0918,-5.097,-5.0966,-5.1014,-5.103,-5.1081,-5.1092,-5.1166,-5.1179,-5.119,-5.1192,-5.1191,-5.119,-5.1212,-5.1206,-5.1194,-5.1193,-5.1192,-5.1191,0,-5.0646,-5.0668,-5.0752,-5.08,-5.0813,-5.0867,-5.0907,-5.0953,-5.0971,-5.1037,-5.1053,-5.1082,-5.1142,-5.116,-5.1231,-5.1239,-5.1327,-5.1322,-5.1313,-5.1314,-5.1365,-5.1361,-5.1526,-5.1549,-5.141,-5.1411,-5.1412,0,-5.0714,-5.0766,-5.082,-5.0855,-5.0883,-5.0939,-5.0975,-5.0989,-5.1027,-5.1082,-5.1121,-5.1181,-5.123,-5.1326,-5.1353,-5.1408,-5.1406,-5.146,-5.1414,-5.1412,-5.1408,-5.1406,-5.1412,-5.1469,-5.147,-5.1471,-5.1472,0,-5.0833,-5.0842,-5.0895,-5.0953,-5.0996,-5.1042,-5.1085,-5.1114,-5.1135,-5.1177,-5.124,-5.1278,-5.1352,-5.1412,-5.1468,-5.1493,-5.1487,-5.1487,-5.1502,-5.1502,-5.1495,-5.1501,-5.1338,-5.1483,-5.1482,-5.1481,-5.1481,-5.148,-5.0917,-5.0964,-5.101,-5.1069,-5.1104,-5.1145,-5.1191,-5.1216,-5.1269,-5.1332,-5.1337,-5.1405,-5.1448,-5.1523,-5.1551,-5.1604,-5.1588,-5.161,-5.1615,-5.1621,-5.1626,-5.1486,-5.1614,-5.1614,-5.1613,-5.1613,-5.1613,0,-5.1038,-5.1067,-5.1122,-5.1184,-5.1231,-5.1222,-5.127,-5.131,-5.1371,-5.1412,-5.1461,-5.1533,-5.1591,-5.1623,-5.1681,-5.1717,-5.1716,-5.1732,-5.173,-5.1736,-5.1636,-5.1618,-5.1732,-5.1732,-5.1732,-5.1732,-5.1732,-5.1732,-5.1106,-5.1185,-5.1199,-5.1295,-5.1324,-5.1392,-5.142,-5.1458,-5.1492,-5.1573,-5.1622,-5.1643,-5.1681,-5.1742,-5.1795,-5.1803,-5.1825,-5.1843,-5.185,-5.1755,-5.1743,-5.1732,-5.1715,-5.1848,-5.1848,-5.1946,-5.1947,-5.1947]}]]